FW0151 Weather Reports


time (UTC)temp
C
wind
direction
speed
KPH
gust
KPH
rain 1hr
cm
rain 24hr
cm
rain mn
cm
humidity
%
barometer
mb
20260507123518 14 0.0 1.6 0.00 0.00 0.00 66 1015.9
20260507122520 14 0.0 3.2 0.00 0.00 0.00 67 1015.9
20260507121520 14 0.0 3.2 0.00 0.00 0.00 67 1015.9
20260507120518 15 0.0 3.2 0.00 0.00 0.00 66 1015.8
20260507115538 15 0.0 1.6 0.00 0.00 0.00 66 1015.9
20260507114518 14 270 1.6 6.4 0.00 0.00 0.00 68 1015.9
20260507113518 15 0.0 4.8 0.00 0.00 0.00 68 1015.8
20260507112519 15 315 1.6 6.4 0.00 0.00 0.00 65 1015.9
20260507111518 15 225 1.6 8.0 0.00 0.00 0.00 69 1015.9
20260507110530 15 248 1.6 12.9 0.00 0.00 0.00 69 1016.0
20260507105519 14 225 6.4 11.3 0.00 0.00 0.00 68 1016.0
20260507104518 14 225 4.8 9.7 0.00 0.00 0.00 68 1016.1
20260507103518 14 225 6.4 11.3 0.00 0.00 0.00 69 1016.2
20260507102518 14 203 3.2 6.4 0.00 0.00 0.00 73 1016.1
20260507101518 13 225 1.6 9.7 0.00 0.00 0.00 73 1016.1
20260507100518 13 248 1.6 8.0 0.00 0.00 0.00 76 1016.0
20260507095519 13 248 3.2 6.4 0.00 0.00 0.00 77 1016.0
20260507094518 13 248 1.6 4.8 0.00 0.00 0.00 77 1016.0
20260507093519 13 225 1.6 4.8 0.00 0.00 0.00 78 1016.0
20260507092518 13 203 1.6 6.4 0.00 0.00 0.00 80 1015.9
20260507091518 12 248 1.6 6.4 0.00 0.00 0.00 79 1015.8
20260507090518 12 248 1.6 4.8 0.00 0.00 0.00 80 1015.8
20260507085519 12 0.0 4.8 0.00 0.00 0.00 81 1015.7
20260507084518 12 248 1.6 4.8 0.00 0.00 0.00 81 1015.7
20260507083519 12 248 1.6 3.2 0.00 0.00 0.00 81 1015.7
20260507082520 12 0.0 3.2 0.00 0.00 0.00 81 1015.5
20260507081516 12 0.0 1.6 0.00 0.00 0.00 81 1015.5
20260507080519 12 0.0 4.8 0.00 0.00 0.00 82 1015.5
20260507075518 12 0.0 1.6 0.00 0.00 0.00 81 1015.5
20260507074518 12 0.0 0.0 0.00 0.00 0.00 84 1015.4
20260507073518 11 0.0 0.0 0.00 0.00 0.00 84 1015.4
20260507072523 11 0.0 1.6 0.00 0.00 0.00 84 1015.3
20260507071540 11 0.0 1.6 0.00 0.00 0.00 85 1015.2
20260507070520 11 0.0 0.0 0.00 0.00 0.00 85 1015.2
20260507065520 11 0.0 1.6 0.00 0.00 0.00 86 1015.1
20260507064519 10 0.0 1.6 0.00 0.00 0.00 86 1015.1
20260507063519 10 0.0 1.6 0.00 0.00 0.00 87 1015.1
20260507062518 10 0.0 1.6 0.00 0.00 0.00 89 1015.0
20260507061518 10 0.0 0.0 0.00 0.00 0.00 90 1014.9
20260507060519 10 0.0 0.0 0.00 0.00 0.00 90 1014.9
20260507055520 10 0.0 0.0 0.00 0.00 0.00 90 1014.8
20260507054520 10 0.0 0.0 0.00 0.00 0.00 91 1014.7
20260507053518 10 0.0 0.0 0.00 0.00 0.00 91 1014.6
20260507052518 9 0.0 0.0 0.00 0.00 0.00 91 1014.5
20260507051518 9 0.0 0.0 0.00 0.00 0.00 90 1014.5
20260507050518 9 0.0 0.0 0.00 0.00 0.00 90 1014.4
20260507045521 9 0.0 0.0 0.00 0.00 0.00 90 1014.3
20260507044520 9 0.0 0.0 0.00 0.00 0.00 90 1014.2
20260507043519 9 0.0 0.0 0.00 0.00 0.00 90 1014.2
20260507042547 9 0.0 0.0 0.00 0.00 0.00 90 1014.2
20260507041518 9 0.0 0.0 0.00 0.00 0.00 90 1014.1
20260507040518 9 0.0 0.0 0.00 0.00 0.00 90 1014.1
20260507035518 9 0.0 0.0 0.00 0.00 0.00 90 1014.0
20260507034518 9 0.0 0.0 0.00 0.00 0.00 90 1013.9
20260507033518 9 0.0 0.0 0.00 0.00 0.00 90 1013.9
20260507032524 9 0.0 0.0 0.00 0.00 0.00 90 1013.9
20260507031519 9 0.0 0.0 0.00 0.00 0.00 90 1013.8
20260507030519 9 0.0 0.0 0.00 0.00 0.00 90 1013.8
20260507025518 9 0.0 0.0 0.00 0.00 0.00 90 1013.7
20260507024518 9 0.0 0.0 0.00 0.00 0.00 89 1013.8
20260507023518 10 0.0 0.0 0.00 0.00 0.00 89 1013.8
20260507022518 10 0.0 0.0 0.00 0.00 0.00 89 1013.7
20260507021521 10 0.0 0.0 0.00 0.00 0.00 89 1013.7
20260507020540 10 0.0 0.0 0.00 0.00 0.00 89 1013.7
20260507015518 10 0.0 0.0 0.00 0.00 0.00 89 1013.6
20260507014518 10 0.0 0.0 0.00 0.00 0.00 88 1013.5
20260507013518 10 0.0 0.0 0.00 0.00 0.00 88 1013.5
20260507012538 10 0.0 1.6 0.00 0.00 0.00 88 1013.5
20260507011518 10 0.0 3.2 0.00 0.00 0.00 88 1013.6
20260507010518 10 0.0 3.2 0.00 0.00 0.00 88 1013.5
20260507005518 10 0.0 3.2 0.00 0.00 0.00 88 1013.4
20260507004518 10 338 1.6 3.2 0.00 0.00 0.00 88 1013.5
20260507003518 10 0.0 1.6 0.00 0.00 0.00 88 1013.5
20260507002518 10 0.0 0.0 0.00 0.00 0.00 88 1013.4
20260507001520 10 0.0 1.6 0.00 0.00 0.00 89 1013.5
20260507000520 10 0.0 1.6 0.00 0.00 0.00 89 1013.5
20260506235620 9 0.0 1.6 0.00 0.00 0.00 89 1013.5
20260506234518 9 0.0 1.6 0.00 0.00 0.00 89 1013.5
20260506233518 9 0.0 0.0 0.00 0.00 0.00 89 1013.4
20260506232538 9 0.0 1.6 0.00 0.00 0.00 89 1013.4
20260506231518 8 0.0 0.0 0.00 0.00 0.00 89 1013.4
20260506230520 8 0.0 0.0 0.00 0.00 0.00 89 1013.3
20260506225520 8 0.0 0.0 0.00 0.00 0.00 88 1013.3
20260506224520 8 0.0 0.0 0.00 0.00 0.00 88 1013.3
20260506223516 8 0.0 0.0 0.00 0.00 0.00 88 1013.2
20260506222536 8 0.0 0.0 0.00 0.00 0.00 87 1013.2
20260506221517 8 0.0 0.0 0.00 0.00 0.00 87 1013.1
20260506220518 8 0.0 1.6 0.00 0.00 0.00 87 1013.1
20260506215516 8 0.0 1.6 0.00 0.00 0.00 87 1013.1
20260506214536 8 338 1.6 4.8 0.00 0.00 0.00 87 1013.0
20260506213518 8 0.0 3.2 0.00 0.00 0.00 87 1013.0
20260506212538 8 338 1.6 3.2 0.00 0.00 0.00 87 1012.9
20260506211516 8 0.0 0.0 0.00 0.00 0.00 87 1012.9
20260506210516 8 0.0 1.6 0.00 0.00 0.00 87 1012.9
20260506205516 8 0.0 1.6 0.00 0.00 0.00 86 1012.9
20260506204536 8 0.0 1.6 0.00 0.00 0.00 85 1012.9
20260506203516 8 0.0 3.2 0.00 0.00 0.00 85 1012.8
20260506202516 8 0.0 3.2 0.00 0.00 0.00 85 1012.8
20260506201516 8 0.0 3.2 0.00 0.00 0.00 84 1012.8
20260506200518 9 338 1.6 3.2 0.00 0.00 0.00 83 1012.7
20260506195517 9 338 1.6 4.8 0.00 0.00 0.00 83 1012.5
20260506194516 10 338 3.2 6.4 0.00 0.00 0.00 82 1012.5
20260506193519 10 338 4.8 9.7 0.00 0.00 0.00 82 1012.4
20260506192518 10 338 3.2 8.0 0.00 0.00 0.00 81 1012.3
20260506191518 10 338 4.8 9.7 0.00 0.00 0.00 80 1012.2
20260506190521 10 338 6.4 11.3 0.00 0.00 0.00 80 1012.1
20260506185538 11 338 4.8 8.0 0.00 0.00 0.00 79 1012.0
20260506184519 11 338 8.0 12.9 0.00 0.00 0.00 78 1012.0
20260506183516 11 338 8.0 17.7 0.00 0.00 0.00 78 1012.0
20260506182516 11 0 8.0 12.9 0.00 0.00 0.00 78 1011.9
20260506181516 11 338 9.7 19.3 0.00 0.00 0.00 76 1011.7
20260506180516 11 338 9.7 20.9 0.00 0.00 0.00 78 1011.6
20260506175516 11 338 11.3 19.3 0.00 0.00 0.00 77 1011.5
20260506174516 12 338 11.3 20.9 0.00 0.00 0.00 76 1011.3
20260506173516 12 0 9.7 14.5 0.00 0.00 0.00 77 1011.3
20260506172516 12 338 8.0 16.1 0.00 0.00 0.00 76 1011.1
20260506171636 12 0 9.7 17.7 0.00 0.00 0.00 77 1011.0
20260506170538 12 0 9.7 19.3 0.00 0.00 0.00 77 1011.0
20260506165519 12 0 11.3 17.7 0.00 0.00 0.00 76 1011.0
20260506164518 12 0 12.9 20.9 0.00 0.00 0.00 76 1010.9
20260506163519 12 0 12.9 19.3 0.00 0.00 0.00 76 1010.9
20260506162518 12 0 11.3 19.3 0.00 0.00 0.00 76 1010.9
20260506161538 12 0 12.9 20.9 0.00 0.00 0.00 76 1010.9
20260506160558 12 23 11.3 17.7 0.00 0.00 0.00 76 1010.8
20260506155518 13 23 11.3 17.7 0.00 0.00 0.00 75 1010.8
20260506154518 12 338 11.3 20.9 0.00 0.00 0.00 77 1010.7
20260506153518 12 0 11.3 19.3 0.00 0.00 0.00 76 1010.8
20260506152517 12 338 11.3 24.1 0.00 0.00 0.00 76 1010.8
20260506151516 12 23 9.7 22.5 0.00 0.00 0.00 77 1010.7
20260506150603 12 23 12.9 17.7 0.00 0.00 0.00 77 1010.8
20260506145518 12 0 9.7 17.7 0.00 0.00 0.00 76 1010.8
20260506144518 12 0 11.3 19.3 0.00 0.00 0.00 75 1010.8
20260506143517 12 338 11.3 20.9 0.00 0.00 0.00 74 1010.7
20260506142516 12 338 9.7 20.9 0.00 0.00 0.00 74 1010.6
20260506141516 13 338 9.7 19.3 0.00 0.00 0.00 73 1010.7
20260506140517 13 0 12.9 22.5 0.00 0.00 0.00 74 1010.6
20260506135537 13 338 11.3 22.5 0.00 0.00 0.00 73 1010.7
20260506134516 13 338 12.9 19.3 0.00 0.00 0.00 73 1010.7
20260506133516 13 338 12.9 20.9 0.00 0.00 0.00 74 1010.7
20260506132519 12 0 11.3 19.3 0.00 0.00 0.00 74 1010.6
20260506131538 12 23 11.3 22.5 0.00 0.00 0.00 74 1010.7
20260506130516 12 0 8.0 16.1 0.00 0.00 0.00 74 1010.6
20260506125518 12 0 9.7 16.1 0.00 0.00 0.00 74 1010.6
20260506124517 12 338 9.7 17.7 0.00 0.00 0.00 75 1010.6